Year,Month,Day,Hour,Minute,Value (Times are PST for temperature in C)
2014,07,14,00,00,12.50
2014,07,14,00,01,12.50
2014,07,14,00,02,12.50
2014,07,14,00,03,12.50
2014,07,14,00,04,12.40
2014,07,14,00,05,12.40
2014,07,14,00,06,12.40
2014,07,14,00,07,12.40
2014,07,14,00,08,12.40
2014,07,14,00,09,12.40
2014,07,14,00,10,12.40
2014,07,14,00,11,12.40
2014,07,14,00,12,12.40
2014,07,14,00,13,12.40
2014,07,14,00,14,12.40
2014,07,14,00,15,12.40
2014,07,14,00,16,12.40
2014,07,14,00,17,12.40
2014,07,14,00,18,12.50
2014,07,14,00,19,12.50
2014,07,14,00,20,12.50
2014,07,14,00,21,12.50
2014,07,14,00,22,12.50
2014,07,14,00,23,12.50
2014,07,14,00,24,12.50
2014,07,14,00,25,12.50
2014,07,14,00,26,12.50
2014,07,14,00,27,12.50
2014,07,14,00,28,12.50
2014,07,14,00,29,12.60
2014,07,14,00,30,12.60
2014,07,14,00,31,12.60
2014,07,14,00,32,12.60
2014,07,14,00,33,12.60
2014,07,14,00,34,12.60
2014,07,14,00,35,12.60
2014,07,14,00,36,12.60
2014,07,14,00,37,12.60
2014,07,14,00,38,12.60
2014,07,14,00,39,12.70
2014,07,14,00,40,12.70
2014,07,14,00,41,12.70
2014,07,14,00,42,12.70
2014,07,14,00,43,12.70
2014,07,14,00,44,12.70
2014,07,14,00,45,12.70
2014,07,14,00,46,12.70
2014,07,14,00,47,12.70
2014,07,14,00,48,12.60
2014,07,14,00,49,12.60
2014,07,14,00,50,12.60
2014,07,14,00,51,12.60
2014,07,14,00,52,12.60
2014,07,14,00,53,12.60
2014,07,14,00,54,12.60
2014,07,14,00,55,12.60
2014,07,14,00,56,12.60
2014,07,14,00,57,12.60
2014,07,14,00,58,12.60
2014,07,14,00,59,12.60
2014,07,14,01,00,12.60
2014,07,14,01,01,12.60
2014,07,14,01,02,12.60
2014,07,14,01,03,12.60
2014,07,14,01,04,12.60
2014,07,14,01,05,12.60
2014,07,14,01,06,12.60
2014,07,14,01,07,12.60
2014,07,14,01,08,12.60
2014,07,14,01,09,12.60
2014,07,14,01,10,12.60
2014,07,14,01,11,12.60
2014,07,14,01,12,12.60
2014,07,14,01,13,12.60
2014,07,14,01,14,12.60
2014,07,14,01,15,12.60
2014,07,14,01,16,12.60
2014,07,14,01,17,12.60
2014,07,14,01,18,12.60
2014,07,14,01,19,12.50
2014,07,14,01,20,12.50
2014,07,14,01,21,12.50
2014,07,14,01,22,12.50
2014,07,14,01,23,12.50
2014,07,14,01,24,12.50
2014,07,14,01,25,12.50
2014,07,14,01,26,12.60
2014,07,14,01,27,12.60
2014,07,14,01,28,12.60
2014,07,14,01,29,12.60
2014,07,14,01,30,12.60
2014,07,14,01,31,12.60
2014,07,14,01,32,12.60
2014,07,14,01,33,12.60
2014,07,14,01,34,12.60
2014,07,14,01,35,12.60
2014,07,14,01,36,12.60
2014,07,14,01,37,12.60
2014,07,14,01,38,12.60
2014,07,14,01,39,12.60
2014,07,14,01,40,12.60
2014,07,14,01,41,12.60
2014,07,14,01,42,12.60
2014,07,14,01,43,12.60
2014,07,14,01,44,12.60
2014,07,14,01,45,12.60
2014,07,14,01,46,12.50
2014,07,14,01,47,12.50
2014,07,14,01,48,12.60
2014,07,14,01,49,12.50
2014,07,14,01,50,12.50
2014,07,14,01,51,12.50
2014,07,14,01,52,12.50
2014,07,14,01,53,12.50
2014,07,14,01,54,12.50
2014,07,14,01,55,12.50
2014,07,14,01,56,12.50
2014,07,14,01,57,12.40
2014,07,14,01,58,12.40
2014,07,14,01,59,12.40
2014,07,14,02,00,12.40
2014,07,14,02,01,12.40
2014,07,14,02,02,12.40
2014,07,14,02,03,12.40
2014,07,14,02,04,12.40
2014,07,14,02,05,12.40
2014,07,14,02,06,12.50
2014,07,14,02,07,12.50
2014,07,14,02,08,12.40
2014,07,14,02,09,12.50
2014,07,14,02,10,12.50
2014,07,14,02,11,12.50
2014,07,14,02,12,12.50
2014,07,14,02,13,12.50
2014,07,14,02,14,12.60
2014,07,14,02,15,12.60
2014,07,14,02,16,12.60
2014,07,14,02,17,12.60
2014,07,14,02,18,12.60
2014,07,14,02,19,12.60
2014,07,14,02,20,12.60
2014,07,14,02,21,12.60
2014,07,14,02,22,12.60
2014,07,14,02,23,12.60
2014,07,14,02,24,12.60
2014,07,14,02,25,12.60
2014,07,14,02,26,12.60
2014,07,14,02,27,12.60
2014,07,14,02,28,12.60
2014,07,14,02,29,12.60
2014,07,14,02,30,12.60
2014,07,14,02,31,12.60
2014,07,14,02,32,12.60
2014,07,14,02,33,12.60
2014,07,14,02,34,12.70
2014,07,14,02,35,12.70
2014,07,14,02,36,12.70
2014,07,14,02,37,12.70
2014,07,14,02,38,12.70
2014,07,14,02,39,12.70
2014,07,14,02,40,12.70
2014,07,14,02,41,12.70
2014,07,14,02,42,12.70
2014,07,14,02,43,12.70
2014,07,14,02,44,12.70
2014,07,14,02,45,12.70
2014,07,14,02,46,12.70
2014,07,14,02,47,12.70
2014,07,14,02,48,12.70
2014,07,14,02,49,12.70
2014,07,14,02,50,12.80
2014,07,14,02,51,12.80
2014,07,14,02,52,12.80
2014,07,14,02,53,12.80
2014,07,14,02,54,12.80
2014,07,14,02,55,12.80
2014,07,14,02,56,12.80
2014,07,14,02,57,12.80
2014,07,14,02,58,12.80
2014,07,14,02,59,12.80
2014,07,14,03,00,12.80
2014,07,14,03,01,12.80
2014,07,14,03,02,12.80
2014,07,14,03,03,12.80
2014,07,14,03,04,12.80
2014,07,14,03,05,12.80
2014,07,14,03,06,12.80
2014,07,14,03,07,12.80
2014,07,14,03,08,12.80
2014,07,14,03,09,12.80
2014,07,14,03,10,12.80
2014,07,14,03,11,12.80
2014,07,14,03,12,12.80
2014,07,14,03,13,12.80
2014,07,14,03,14,12.80
2014,07,14,03,15,12.80
2014,07,14,03,16,12.90
2014,07,14,03,17,12.90
2014,07,14,03,18,12.90
2014,07,14,03,19,12.90
2014,07,14,03,20,12.90
2014,07,14,03,21,12.90
2014,07,14,03,22,12.90
2014,07,14,03,23,12.90
2014,07,14,03,24,12.90
2014,07,14,03,25,12.90
2014,07,14,03,26,12.90
2014,07,14,03,27,12.90
2014,07,14,03,28,12.90
2014,07,14,03,29,12.90
2014,07,14,03,30,12.90
2014,07,14,03,31,12.90
2014,07,14,03,32,12.90
2014,07,14,03,33,12.90
2014,07,14,03,34,12.90
2014,07,14,03,35,12.90
2014,07,14,03,36,12.80
2014,07,14,03,37,12.90
2014,07,14,03,38,12.80
2014,07,14,03,39,12.80
2014,07,14,03,40,12.80
2014,07,14,03,41,12.90
2014,07,14,03,42,12.90
2014,07,14,03,43,12.90
2014,07,14,03,44,12.90
2014,07,14,03,45,12.90
2014,07,14,03,46,12.90
2014,07,14,03,47,12.90
2014,07,14,03,48,12.90
2014,07,14,03,49,12.90
2014,07,14,03,50,12.90
2014,07,14,03,51,12.90
2014,07,14,03,52,12.90
2014,07,14,03,53,12.90
2014,07,14,03,54,12.90
2014,07,14,03,55,12.90
2014,07,14,03,56,12.90
2014,07,14,03,57,12.90
2014,07,14,03,58,12.90
2014,07,14,03,59,12.90
2014,07,14,04,00,12.90
2014,07,14,04,01,12.90
2014,07,14,04,02,12.90
2014,07,14,04,03,12.90
2014,07,14,04,04,12.90
2014,07,14,04,05,12.90
2014,07,14,04,06,12.90
2014,07,14,04,07,12.90
2014,07,14,04,08,12.90
2014,07,14,04,09,12.90
2014,07,14,04,10,12.90
2014,07,14,04,11,12.90
2014,07,14,04,12,12.90
2014,07,14,04,13,12.90
2014,07,14,04,14,12.90
2014,07,14,04,15,12.90
2014,07,14,04,16,12.90
2014,07,14,04,17,12.90
2014,07,14,04,18,12.90
2014,07,14,04,19,12.90
2014,07,14,04,20,12.90
2014,07,14,04,21,12.90
2014,07,14,04,22,12.90
2014,07,14,04,23,12.90
2014,07,14,04,24,12.90
2014,07,14,04,25,12.90
2014,07,14,04,26,12.90
2014,07,14,04,27,12.90
2014,07,14,04,28,12.90
2014,07,14,04,29,12.90
2014,07,14,04,30,12.90
2014,07,14,04,31,12.90
2014,07,14,04,32,13.00
2014,07,14,04,33,13.00
2014,07,14,04,34,13.00
2014,07,14,04,35,13.00
2014,07,14,04,36,13.00
2014,07,14,04,37,13.00
2014,07,14,04,38,13.10
2014,07,14,04,39,13.10
2014,07,14,04,40,13.10
2014,07,14,04,41,13.10
2014,07,14,04,42,13.10
2014,07,14,04,43,13.10
2014,07,14,04,44,13.10
2014,07,14,04,45,13.10
2014,07,14,04,46,13.10
2014,07,14,04,47,13.10
2014,07,14,04,48,13.10
2014,07,14,04,49,13.10
2014,07,14,04,50,13.00
2014,07,14,04,51,13.00
2014,07,14,04,52,13.10
2014,07,14,04,53,13.10
2014,07,14,04,54,13.10
2014,07,14,04,55,13.00
2014,07,14,04,56,13.00
2014,07,14,04,57,13.00
2014,07,14,04,58,13.10
2014,07,14,04,59,13.10
2014,07,14,05,00,13.10
2014,07,14,05,01,13.10
2014,07,14,05,02,13.10
2014,07,14,05,03,13.10
2014,07,14,05,04,13.10
2014,07,14,05,05,13.10
2014,07,14,05,06,13.00
2014,07,14,05,07,13.00
2014,07,14,05,08,13.00
2014,07,14,05,09,13.00
2014,07,14,05,10,13.00
2014,07,14,05,11,13.00
2014,07,14,05,12,13.00
2014,07,14,05,13,13.00
2014,07,14,05,14,13.00
2014,07,14,05,15,13.00
2014,07,14,05,16,13.00
2014,07,14,05,17,13.00
2014,07,14,05,18,13.00
2014,07,14,05,19,13.00
2014,07,14,05,20,13.00
2014,07,14,05,21,13.00
2014,07,14,05,22,13.00
2014,07,14,05,23,13.00
2014,07,14,05,24,13.00
2014,07,14,05,25,13.00
2014,07,14,05,26,13.00
2014,07,14,05,27,13.00
2014,07,14,05,28,13.00
2014,07,14,05,29,13.00
2014,07,14,05,30,13.00
2014,07,14,05,31,13.00
2014,07,14,05,32,13.00
2014,07,14,05,33,13.00
2014,07,14,05,34,13.10
2014,07,14,05,35,13.10
2014,07,14,05,36,13.10
2014,07,14,05,37,13.10
2014,07,14,05,38,13.10
2014,07,14,05,39,13.10
2014,07,14,05,40,13.10
2014,07,14,05,41,13.10
2014,07,14,05,42,13.10
2014,07,14,05,43,13.10
2014,07,14,05,44,13.00
2014,07,14,05,45,13.00
2014,07,14,05,46,13.00
2014,07,14,05,47,13.00
2014,07,14,05,48,13.00
2014,07,14,05,49,13.00
2014,07,14,05,50,13.00
2014,07,14,05,51,13.00
2014,07,14,05,52,13.00
2014,07,14,05,53,13.00
2014,07,14,05,54,13.00
2014,07,14,05,55,13.00
2014,07,14,05,56,13.00
2014,07,14,05,57,13.00
2014,07,14,05,58,13.00
2014,07,14,05,59,13.00
2014,07,14,06,00,13.00
2014,07,14,06,01,13.00
2014,07,14,06,02,13.00
2014,07,14,06,03,13.00
2014,07,14,06,04,13.00
2014,07,14,06,05,13.00
2014,07,14,06,06,13.00
2014,07,14,06,07,13.00
2014,07,14,06,08,13.00
2014,07,14,06,09,13.00
2014,07,14,06,10,13.00
2014,07,14,06,11,13.00
2014,07,14,06,12,13.00
2014,07,14,06,13,13.00
2014,07,14,06,14,13.00
2014,07,14,06,15,13.00
2014,07,14,06,16,13.00
2014,07,14,06,17,13.00
2014,07,14,06,18,13.00
2014,07,14,06,19,13.00
2014,07,14,06,20,13.00
2014,07,14,06,21,13.00
2014,07,14,06,22,13.10
2014,07,14,06,23,13.10
2014,07,14,06,24,13.10
2014,07,14,06,25,13.10
2014,07,14,06,26,13.00
2014,07,14,06,27,13.00
2014,07,14,06,28,13.00
2014,07,14,06,29,13.00
2014,07,14,06,30,13.00
2014,07,14,06,31,13.00
2014,07,14,06,32,13.00
2014,07,14,06,33,13.00
2014,07,14,06,34,12.90
2014,07,14,06,35,12.90
2014,07,14,06,36,12.90
2014,07,14,06,37,12.90
2014,07,14,06,38,12.90
2014,07,14,06,39,12.90
2014,07,14,06,40,12.90
2014,07,14,06,41,12.90
2014,07,14,06,42,13.00
2014,07,14,06,43,13.00
2014,07,14,06,44,13.00
2014,07,14,06,45,12.90
2014,07,14,06,46,12.90
2014,07,14,06,47,12.80
2014,07,14,06,48,12.80
2014,07,14,06,49,12.80
2014,07,14,06,50,12.80
2014,07,14,06,51,12.70
2014,07,14,06,52,12.70
2014,07,14,06,53,12.70
2014,07,14,06,54,12.70
2014,07,14,06,55,12.70
2014,07,14,06,56,12.70
2014,07,14,06,57,12.70
2014,07,14,06,58,12.70
2014,07,14,06,59,12.70
2014,07,14,07,00,12.70
2014,07,14,07,01,12.70
2014,07,14,07,02,12.70
2014,07,14,07,03,12.70
2014,07,14,07,04,12.70
2014,07,14,07,05,12.70
2014,07,14,07,06,12.70
2014,07,14,07,07,12.70
2014,07,14,07,08,12.70
2014,07,14,07,09,12.70
2014,07,14,07,10,12.70
2014,07,14,07,11,12.70
2014,07,14,07,12,12.70
2014,07,14,07,13,12.70
2014,07,14,07,14,12.70
2014,07,14,07,15,12.70
2014,07,14,07,16,12.70
2014,07,14,07,17,12.70
2014,07,14,07,18,12.70
2014,07,14,07,19,12.70
2014,07,14,07,20,12.70
2014,07,14,07,21,12.70
2014,07,14,07,22,12.70
2014,07,14,07,23,12.70
2014,07,14,07,24,12.70
2014,07,14,07,25,12.70
2014,07,14,07,26,12.70
2014,07,14,07,27,12.70
2014,07,14,07,28,12.70
2014,07,14,07,29,12.70
2014,07,14,07,30,12.70
2014,07,14,07,31,12.70
2014,07,14,07,32,12.70
2014,07,14,07,33,12.70
2014,07,14,07,34,12.70
2014,07,14,07,35,12.70
2014,07,14,07,36,12.70
2014,07,14,07,37,12.70
2014,07,14,07,38,12.70
2014,07,14,07,39,12.70
2014,07,14,07,40,12.70
2014,07,14,07,41,12.70
2014,07,14,07,42,12.70
2014,07,14,07,43,12.70
2014,07,14,07,44,12.70
2014,07,14,07,45,12.70
2014,07,14,07,46,12.70
2014,07,14,07,47,12.60
2014,07,14,07,48,12.60
2014,07,14,07,49,12.60
2014,07,14,07,50,12.60
2014,07,14,07,51,12.60
2014,07,14,07,52,12.60
2014,07,14,07,53,12.60
2014,07,14,07,54,12.60
2014,07,14,07,55,12.60
2014,07,14,07,56,12.60
2014,07,14,07,57,12.60
2014,07,14,07,58,12.60
2014,07,14,07,59,12.60
2014,07,14,08,00,12.50
2014,07,14,08,01,12.50
2014,07,14,08,02,12.50
2014,07,14,08,03,12.50
2014,07,14,08,04,12.50
2014,07,14,08,05,12.50
2014,07,14,08,06,12.50
2014,07,14,08,07,12.50
2014,07,14,08,08,12.50
2014,07,14,08,09,12.50
2014,07,14,08,10,12.50
2014,07,14,08,11,12.50
2014,07,14,08,12,12.50
2014,07,14,08,13,12.50
2014,07,14,08,14,12.40
2014,07,14,08,15,12.40
2014,07,14,08,16,12.40
2014,07,14,08,17,12.40
2014,07,14,08,18,12.50
2014,07,14,08,19,12.50
2014,07,14,08,20,12.50
2014,07,14,08,21,12.50
2014,07,14,08,22,12.50
2014,07,14,08,23,12.50
2014,07,14,08,24,12.50
2014,07,14,08,25,12.50
2014,07,14,08,26,12.50
2014,07,14,08,27,12.50
2014,07,14,08,28,12.60
2014,07,14,08,29,12.60
2014,07,14,08,30,12.60
2014,07,14,08,31,12.60
2014,07,14,08,32,12.60
2014,07,14,08,33,12.60
2014,07,14,08,34,12.60
2014,07,14,08,35,12.60
2014,07,14,08,36,12.60
2014,07,14,08,37,12.60
2014,07,14,08,38,12.70
2014,07,14,08,39,12.70
2014,07,14,08,40,12.70
2014,07,14,08,41,12.70
2014,07,14,08,42,12.70
2014,07,14,08,43,12.70
2014,07,14,08,44,12.70
2014,07,14,08,45,12.80
2014,07,14,08,46,12.80
2014,07,14,08,47,12.80
2014,07,14,08,48,12.80
2014,07,14,08,49,12.70
2014,07,14,08,50,12.70
2014,07,14,08,51,12.70
2014,07,14,08,52,12.70
2014,07,14,08,53,12.70
2014,07,14,08,54,12.70
2014,07,14,08,55,12.70
2014,07,14,08,56,12.70
2014,07,14,08,57,12.70
2014,07,14,08,58,12.70
2014,07,14,08,59,12.70
2014,07,14,09,00,12.70
2014,07,14,09,01,12.80
2014,07,14,09,02,12.80
2014,07,14,09,03,12.80
2014,07,14,09,04,12.80
2014,07,14,09,05,12.80
2014,07,14,09,06,12.80
2014,07,14,09,07,12.80
2014,07,14,09,08,12.80
2014,07,14,09,09,12.80
2014,07,14,09,10,12.80
2014,07,14,09,11,12.80
2014,07,14,09,12,12.80
2014,07,14,09,13,12.80
2014,07,14,09,14,12.80
2014,07,14,09,15,12.90
2014,07,14,09,16,12.90
2014,07,14,09,17,12.90
2014,07,14,09,18,12.90
2014,07,14,09,19,12.90
2014,07,14,09,20,12.80
2014,07,14,09,21,12.80
2014,07,14,09,22,12.80
2014,07,14,09,23,12.80
2014,07,14,09,24,12.80
2014,07,14,09,25,12.80
2014,07,14,09,26,12.80
2014,07,14,09,27,12.80
2014,07,14,09,28,12.80
2014,07,14,09,29,12.80
2014,07,14,09,30,12.80
2014,07,14,09,31,12.80
2014,07,14,09,32,12.80
2014,07,14,09,33,12.80
2014,07,14,09,34,12.90
2014,07,14,09,35,12.90
2014,07,14,09,36,12.90
2014,07,14,09,37,12.80
2014,07,14,09,38,12.90
2014,07,14,09,39,12.90
2014,07,14,09,40,12.90
2014,07,14,09,41,12.90
2014,07,14,09,42,12.90
2014,07,14,09,43,12.90
2014,07,14,09,44,12.90
2014,07,14,09,45,13.00
2014,07,14,09,46,13.00
2014,07,14,09,47,13.00
2014,07,14,09,48,13.00
2014,07,14,09,49,13.00
2014,07,14,09,50,13.00
2014,07,14,09,51,13.00
2014,07,14,09,52,13.00
2014,07,14,09,53,12.90
2014,07,14,09,54,13.00
2014,07,14,09,55,13.00
2014,07,14,09,56,12.90
2014,07,14,09,57,12.90
2014,07,14,09,58,13.00
2014,07,14,09,59,13.00
2014,07,14,10,00,13.00
2014,07,14,10,01,13.00
2014,07,14,10,02,13.00
2014,07,14,10,03,13.00
2014,07,14,10,04,13.00
2014,07,14,10,05,13.00
2014,07,14,10,06,13.00
2014,07,14,10,07,13.00
2014,07,14,10,08,13.00
2014,07,14,10,09,13.10
2014,07,14,10,10,13.10
2014,07,14,10,11,13.10
2014,07,14,10,12,13.10
2014,07,14,10,13,13.10
2014,07,14,10,14,13.10
2014,07,14,10,15,13.10
2014,07,14,10,16,13.10
2014,07,14,10,17,13.00
2014,07,14,10,18,13.00
2014,07,14,10,19,13.00
2014,07,14,10,20,13.00
2014,07,14,10,21,13.00
2014,07,14,10,22,13.00
2014,07,14,10,23,13.00
2014,07,14,10,24,12.90
2014,07,14,10,25,12.90
2014,07,14,10,26,13.00
2014,07,14,10,27,13.00
2014,07,14,10,28,13.00
2014,07,14,10,29,12.90
2014,07,14,10,30,12.90
2014,07,14,10,31,12.90
2014,07,14,10,32,13.00
2014,07,14,10,33,13.00
2014,07,14,10,34,13.10
2014,07,14,10,35,13.10
2014,07,14,10,36,13.10
2014,07,14,10,37,13.10
2014,07,14,10,38,13.00
2014,07,14,10,39,13.00
2014,07,14,10,40,13.00
2014,07,14,10,41,13.00
2014,07,14,10,42,13.00
2014,07,14,10,43,13.00
2014,07,14,10,44,13.00
2014,07,14,10,45,13.00
2014,07,14,10,46,13.00
2014,07,14,10,47,13.00
2014,07,14,10,48,13.00
2014,07,14,10,49,13.00
2014,07,14,10,50,13.00
2014,07,14,10,51,13.00
2014,07,14,10,52,13.00
2014,07,14,10,53,12.90
2014,07,14,10,54,13.00
2014,07,14,10,55,13.00
2014,07,14,10,56,13.00
2014,07,14,10,57,13.00
2014,07,14,10,58,13.00
2014,07,14,10,59,13.00
2014,07,14,11,00,13.10
2014,07,14,11,01,13.10
2014,07,14,11,02,13.10
2014,07,14,11,03,13.10
2014,07,14,11,04,13.10
2014,07,14,11,05,13.20
2014,07,14,11,06,13.20
2014,07,14,11,07,13.20
2014,07,14,11,08,13.20
2014,07,14,11,09,13.20
2014,07,14,11,10,13.20
2014,07,14,11,11,13.20
2014,07,14,11,12,13.20
2014,07,14,11,13,13.20
2014,07,14,11,14,13.20
2014,07,14,11,15,13.30
2014,07,14,11,16,13.30
2014,07,14,11,17,13.30
2014,07,14,11,18,13.30
2014,07,14,11,19,13.30
2014,07,14,11,20,13.30
2014,07,14,11,21,13.30
2014,07,14,11,22,13.30
2014,07,14,11,23,13.30
2014,07,14,11,24,13.30
2014,07,14,11,25,13.30
2014,07,14,11,26,13.40
2014,07,14,11,27,13.40
2014,07,14,11,28,13.40
2014,07,14,11,29,13.40
2014,07,14,11,30,13.50
2014,07,14,11,31,13.50
2014,07,14,11,32,13.50
2014,07,14,11,33,13.50
2014,07,14,11,34,13.60
2014,07,14,11,35,13.60
2014,07,14,11,36,13.60
2014,07,14,11,37,13.60
2014,07,14,11,38,13.60
2014,07,14,11,39,13.60
2014,07,14,11,40,13.50
2014,07,14,11,41,13.40
2014,07,14,11,42,13.50
2014,07,14,11,43,13.50
2014,07,14,11,44,13.50
2014,07,14,11,45,13.60
2014,07,14,11,46,13.60
2014,07,14,11,47,13.60
2014,07,14,11,48,13.60
2014,07,14,11,49,13.60
2014,07,14,11,50,13.70
2014,07,14,11,51,13.70
2014,07,14,11,52,13.70
2014,07,14,11,53,13.70
2014,07,14,11,54,13.80
2014,07,14,11,55,13.80
2014,07,14,11,56,13.80
2014,07,14,11,57,13.80
2014,07,14,11,58,13.80
2014,07,14,11,59,13.80
2014,07,14,12,00,13.80
2014,07,14,12,01,13.80
2014,07,14,12,02,13.80
2014,07,14,12,03,13.90
2014,07,14,12,04,13.90
2014,07,14,12,05,13.90
2014,07,14,12,06,13.90
2014,07,14,12,07,14.00
2014,07,14,12,08,14.10
2014,07,14,12,09,14.10
2014,07,14,12,10,14.20
2014,07,14,12,11,14.20
2014,07,14,12,12,14.30
2014,07,14,12,13,14.20
2014,07,14,12,14,14.30
2014,07,14,12,15,14.20
2014,07,14,12,16,14.20
2014,07,14,12,17,14.20
2014,07,14,12,18,14.20
2014,07,14,12,19,14.20
2014,07,14,12,20,14.20
2014,07,14,12,21,14.20
2014,07,14,12,22,14.20
2014,07,14,12,23,14.20
2014,07,14,12,24,14.20
2014,07,14,12,25,14.20
2014,07,14,12,26,14.20
2014,07,14,12,27,14.20
2014,07,14,12,28,14.20
2014,07,14,12,29,14.20
2014,07,14,12,30,14.10
2014,07,14,12,31,14.10
2014,07,14,12,32,14.00
2014,07,14,12,33,14.00
2014,07,14,12,34,13.90
2014,07,14,12,35,14.00
2014,07,14,12,36,14.00
2014,07,14,12,37,14.00
2014,07,14,12,38,14.00
2014,07,14,12,39,14.00
2014,07,14,12,40,14.00
2014,07,14,12,41,14.10
2014,07,14,12,42,14.10
2014,07,14,12,43,14.00
2014,07,14,12,44,14.00
2014,07,14,12,45,14.00
2014,07,14,12,46,14.00
2014,07,14,12,47,14.00
2014,07,14,12,48,14.00
2014,07,14,12,49,13.90
2014,07,14,12,50,13.90
2014,07,14,12,51,13.90
2014,07,14,12,52,13.90
2014,07,14,12,53,14.00
2014,07,14,12,54,14.00
2014,07,14,12,55,14.00
2014,07,14,12,56,14.10
2014,07,14,12,57,14.10
2014,07,14,12,58,14.20
2014,07,14,12,59,14.20
2014,07,14,13,00,14.20
2014,07,14,13,01,14.20
2014,07,14,13,02,14.20
2014,07,14,13,03,14.10
2014,07,14,13,04,14.20
2014,07,14,13,05,14.20
2014,07,14,13,06,14.20
2014,07,14,13,07,14.20
2014,07,14,13,08,14.20
2014,07,14,13,09,14.20
2014,07,14,13,10,14.20
2014,07,14,13,11,14.20
2014,07,14,13,12,14.20
2014,07,14,13,13,14.20
2014,07,14,13,14,14.30
2014,07,14,13,15,14.30
2014,07,14,13,16,14.40
2014,07,14,13,17,14.50
2014,07,14,13,18,14.50
2014,07,14,13,19,14.60
2014,07,14,13,20,14.60
2014,07,14,13,21,14.70
2014,07,14,13,22,14.70
2014,07,14,13,23,14.70
2014,07,14,13,24,14.70
2014,07,14,13,25,14.70
2014,07,14,13,26,14.60
2014,07,14,13,27,14.60
2014,07,14,13,28,14.60
2014,07,14,13,29,14.60
2014,07,14,13,30,14.60
2014,07,14,13,31,14.50
2014,07,14,13,32,14.50
2014,07,14,13,33,14.50
2014,07,14,13,34,14.40
2014,07,14,13,35,14.40
2014,07,14,13,36,14.40
2014,07,14,13,37,14.40
2014,07,14,13,38,14.40
2014,07,14,13,39,14.40
2014,07,14,13,40,14.40
2014,07,14,13,41,14.40
2014,07,14,13,42,14.30
2014,07,14,13,43,14.30
2014,07,14,13,44,14.30
2014,07,14,13,45,14.30
2014,07,14,13,46,14.40
2014,07,14,13,47,14.50
2014,07,14,13,48,14.50
2014,07,14,13,49,14.50
2014,07,14,13,50,14.50
2014,07,14,13,51,14.60
2014,07,14,13,52,14.60
2014,07,14,13,53,14.60
2014,07,14,13,54,14.60
2014,07,14,13,55,14.60
2014,07,14,13,56,14.60
2014,07,14,13,57,14.60
2014,07,14,13,58,14.60
2014,07,14,13,59,14.60
2014,07,14,14,00,14.60
2014,07,14,14,01,14.60
2014,07,14,14,02,14.60
2014,07,14,14,03,14.60
2014,07,14,14,04,14.60
2014,07,14,14,05,14.60
2014,07,14,14,06,14.60
2014,07,14,14,07,14.60
2014,07,14,14,08,14.50
2014,07,14,14,09,14.50
2014,07,14,14,10,14.50
2014,07,14,14,11,14.40
2014,07,14,14,12,14.40
2014,07,14,14,13,14.40
2014,07,14,14,14,14.50
2014,07,14,14,15,14.50
2014,07,14,14,16,14.50
2014,07,14,14,17,14.50
2014,07,14,14,18,14.50
2014,07,14,14,19,14.60
2014,07,14,14,20,14.60
2014,07,14,14,21,14.60
2014,07,14,14,22,14.60
2014,07,14,14,23,14.70
2014,07,14,14,24,14.60
2014,07,14,14,25,14.60
2014,07,14,14,26,14.50
2014,07,14,14,27,14.50
2014,07,14,14,28,14.50
2014,07,14,14,29,14.50
2014,07,14,14,30,14.40
2014,07,14,14,31,14.40
2014,07,14,14,32,14.30
2014,07,14,14,33,14.30
2014,07,14,14,34,14.30
2014,07,14,14,35,14.30
2014,07,14,14,36,14.30
2014,07,14,14,37,14.40
2014,07,14,14,38,14.40
2014,07,14,14,39,14.40
2014,07,14,14,40,14.40
2014,07,14,14,41,14.40
2014,07,14,14,42,14.40
2014,07,14,14,43,14.40
2014,07,14,14,44,14.40
2014,07,14,14,45,14.50
2014,07,14,14,46,14.40
2014,07,14,14,47,14.40
2014,07,14,14,48,14.30
2014,07,14,14,49,14.30
2014,07,14,14,50,14.30
2014,07,14,14,51,14.30
2014,07,14,14,52,14.30
2014,07,14,14,53,14.30
2014,07,14,14,54,14.30
2014,07,14,14,55,14.40
2014,07,14,14,56,14.40
2014,07,14,14,57,14.40
2014,07,14,14,58,14.30
2014,07,14,14,59,14.30
2014,07,14,15,00,14.30
2014,07,14,15,01,14.20
2014,07,14,15,02,14.20
2014,07,14,15,03,14.20
2014,07,14,15,04,14.30
2014,07,14,15,05,14.30
2014,07,14,15,06,14.30
2014,07,14,15,07,14.30
2014,07,14,15,08,14.30
2014,07,14,15,09,14.40
2014,07,14,15,10,14.30
2014,07,14,15,11,14.30
2014,07,14,15,12,14.30
2014,07,14,15,13,14.30
2014,07,14,15,14,14.30
2014,07,14,15,15,14.30
2014,07,14,15,16,14.30
2014,07,14,15,17,14.30
2014,07,14,15,18,14.30
2014,07,14,15,19,14.30
2014,07,14,15,20,14.30
2014,07,14,15,21,14.20
2014,07,14,15,22,14.20
2014,07,14,15,23,14.20
2014,07,14,15,24,14.10
2014,07,14,15,25,14.10
2014,07,14,15,26,14.10
2014,07,14,15,27,14.10
2014,07,14,15,28,14.10
2014,07,14,15,29,14.10
2014,07,14,15,30,14.10
2014,07,14,15,31,14.10
2014,07,14,15,32,14.10
2014,07,14,15,33,14.10
2014,07,14,15,34,14.10
2014,07,14,15,35,14.10
2014,07,14,15,36,14.00
2014,07,14,15,37,13.90
2014,07,14,15,38,13.90
2014,07,14,15,39,13.90
2014,07,14,15,40,13.90
2014,07,14,15,41,14.00
2014,07,14,15,42,14.00
2014,07,14,15,43,14.00
2014,07,14,15,44,14.10
2014,07,14,15,45,14.10
2014,07,14,15,46,14.10
2014,07,14,15,47,14.20
2014,07,14,15,48,14.30
2014,07,14,15,49,14.20
2014,07,14,15,50,14.20
2014,07,14,15,51,14.20
2014,07,14,15,52,14.20
2014,07,14,15,53,14.20
2014,07,14,15,54,14.20
2014,07,14,15,55,14.10
2014,07,14,15,56,14.10
2014,07,14,15,57,14.20
2014,07,14,15,58,14.20
2014,07,14,15,59,14.20
2014,07,14,16,00,14.20
2014,07,14,16,01,14.20
2014,07,14,16,02,14.20
2014,07,14,16,03,14.30
2014,07,14,16,04,14.30
2014,07,14,16,05,14.30
2014,07,14,16,06,14.30
2014,07,14,16,07,14.20
2014,07,14,16,08,14.20
2014,07,14,16,09,14.20
2014,07,14,16,10,14.20
2014,07,14,16,11,14.10
2014,07,14,16,12,14.10
2014,07,14,16,13,14.10
2014,07,14,16,14,14.10
2014,07,14,16,15,14.10
2014,07,14,16,16,14.00
2014,07,14,16,17,14.00
2014,07,14,16,18,14.00
2014,07,14,16,19,13.90
2014,07,14,16,20,13.80
2014,07,14,16,21,13.80
2014,07,14,16,22,13.70
2014,07,14,16,23,13.70
2014,07,14,16,24,13.60
2014,07,14,16,25,13.60
2014,07,14,16,26,13.50
2014,07,14,16,27,13.50
2014,07,14,16,28,13.40
2014,07,14,16,29,13.40
2014,07,14,16,30,13.50
2014,07,14,16,31,13.60
2014,07,14,16,32,13.60
2014,07,14,16,33,13.60
2014,07,14,16,34,13.70
2014,07,14,16,35,13.70
2014,07,14,16,36,13.70
2014,07,14,16,37,13.70
2014,07,14,16,38,13.60
2014,07,14,16,39,13.60
2014,07,14,16,40,13.60
2014,07,14,16,41,13.50
2014,07,14,16,42,13.40
2014,07,14,16,43,13.40
2014,07,14,16,44,13.30
2014,07,14,16,45,13.30
2014,07,14,16,46,13.40
2014,07,14,16,47,13.40
2014,07,14,16,48,13.40
2014,07,14,16,49,13.50
2014,07,14,16,50,13.50
2014,07,14,16,51,13.50
2014,07,14,16,52,13.50
2014,07,14,16,53,13.50
2014,07,14,16,54,13.50
2014,07,14,16,55,13.50
2014,07,14,16,56,13.50
2014,07,14,16,57,13.50
2014,07,14,16,58,13.50
2014,07,14,16,59,13.50
2014,07,14,17,00,13.60
2014,07,14,17,01,13.60
2014,07,14,17,02,13.60
2014,07,14,17,03,13.70
2014,07,14,17,04,13.70
2014,07,14,17,05,13.70
2014,07,14,17,06,13.70
2014,07,14,17,07,13.70
2014,07,14,17,08,13.70
2014,07,14,17,09,13.70
2014,07,14,17,10,13.70
2014,07,14,17,11,13.70
2014,07,14,17,12,13.70
2014,07,14,17,13,13.70
2014,07,14,17,14,13.60
2014,07,14,17,15,13.60
2014,07,14,17,16,13.60
2014,07,14,17,17,13.60
2014,07,14,17,18,13.60
2014,07,14,17,19,13.60